GEFSNGP_con_prob3kmehi_174.txt.gz
EHI
0 0 0 0 0 0 0 0 0 0 0 0 0 0 1 3 5 8 12 15 15 13 13 15 16 14 11 10 10 11 12 13 12 9 6 3 2 1 0 0 0 0 0 0
0 0 0 0 0 0 0 0 0 0 0 0 0 0 0 2 4 7 10 12 13 13 14 15 16 14 11 10 10 11 13 13 12 9 5 2 1 0 0 0 0 0 0 0
0 0 0 0 0 0 0 0 0 0 0 0 0 0 0 1 3 5 7 9 12 13 15 16 15 13 12 11 10 11 13 13 11 8 4 2 0 0 0 0 0 0 0 0
0 0 0 0 0 1 1 0 0 1 1 0 0 0 0 1 2 3 5 8 12 14 15 15 14 12 13 12 11 11 11 11 9 6 3 2 1 0 0 0 0 0 0 0
0 0 0 0 0 1 1 0 1 2 1 0 0 0 0 1 2 2 3 7 11 13 13 14 12 11 12 12 10 9 9 7 5 4 2 1 1 0 0 1 1 0 0 0
0 0 0 0 0 1 1 0 1 1 1 0 0 0 0 1 3 4 4 5 9 11 11 11 11 10 10 9 8 7 5 3 2 2 2 1 1 0 0 1 1 0 0 0
0 0 0 0 0 0 0 0 0 0 0 0 0 0 0 1 3 6 8 8 10 11 10 9 9 10 9 7 5 4 2 1 0 1 2 1 0 0 0 1 1 0 0 0
0 0 0 0 0 0 0 0 0 0 0 1 1 1 1 1 3 6 10 12 13 13 11 9 9 9 8 6 4 3 2 1 0 0 1 1 0 0 1 1 1 1 1 1
0 0 0 0 0 0 0 0 0 1 2 3 3 3 2 2 2 5 10 13 14 14 13 11 9 9 9 7 5 5 5 3 2 0 0 0 1 2 3 3 3 3 2 2
0 0 1 1 1 0 0 1 2 2 4 5 5 4 3 3 3 6 9 11 13 14 14 12 10 9 9 8 8 7 8 7 5 2 1 1 1 3 4 4 5 5 3 2
0 0 1 2 1 0 0 2 3 4 5 5 4 3 3 3 4 5 7 8 9 11 12 11 10 9 8 7 7 7 9 9 7 5 4 2 2 3 2 2 3 4 3 2
0 0 1 1 0 0 1 1 3 4 4 4 3 3 2 3 3 3 4 5 6 8 8 9 9 9 7 6 5 6 7 8 8 7 7 5 4 3 2 1 1 1 1 1
0 0 0 0 0 0 1 1 1 2 3 2 2 1 1 1 1 1 2 4 6 7 7 8 9 8 6 4 3 4 4 5 6 6 6 5 5 5 3 1 0 0 0 0
0 0 0 0 0 0 0 0 0 1 1 1 1 0 0 0 0 0 2 5 7 7 7 8 8 6 3 2 3 3 3 4 4 4 4 4 4 5 5 2 0 0 0 0
0 0 0 0 0 0 0 0 0 0 0 0 0 0 0 0 1 1 2 4 7 8 8 7 6 4 2 1 2 3 3 3 3 3 3 3 3 4 5 4 2 0 0 0
0 0 0 0 0 0 0 0 0 0 0 0 0 0 0 1 2 3 4 5 7 8 7 6 4 2 0 0 1 1 2 2 2 3 3 3 3 3 4 4 3 1 0 0
0 0 0 0 0 0 0 0 1 1 0 0 0 0 1 2 3 4 5 6 7 7 5 3 2 1 0 0 0 0 1 1 1 1 3 3 3 3 3 4 3 1 0 0
0 0 0 0 0 0 0 0 1 1 0 1 1 1 1 1 2 3 4 6 6 5 3 2 1 1 0 0 0 0 0 0 0 1 2 2 2 3 3 3 2 1 0 0
0 0 0 0 0 0 0 0 1 1 1 1 1 1 0 0 1 2 3 5 5 4 3 2 2 2 1 0 0 0 0 0 0 0 1 1 1 1 2 2 1 0 0 0
1 1 2 2 2 2 1 1 2 2 1 1 1 0 0 0 1 2 3 4 3 3 3 3 3 3 2 0 0 0 0 0 0 0 0 0 0 0 1 1 0 0 0 0
3 4 4 4 4 3 2 2 2 2 2 1 0 0 0 0 1 2 2 2 2 2 2 2 2 2 1 0 0 0 0 0 0 0 0 0 0 0 0 0 0 0 0 0
3 3 3 3 3 2 1 1 1 1 1 1 0 0 0 0 0 1 1 1 0 1 1 1 1 1 0 0 0 0 0 0 0 0 0 0 0 0 0 0 0 0 0 0
1 1 1 1 1 0 0 0 0 0 0 0 0 0 0 0 0 0 0 0 0 0 0 0 0 0 0 0 0 0 0 0 0 0 0 0 0 0 0 0 0 0 0 0
0 0 0 0 0 0 0 0 0 0 0 0 0 0 0 0 0 0 0 0 0 0 0 0 0 0 0 0 0 0 0 0 0 0 0 0 0 0 0 0 0 0 0 0
0 0 0 0 0 0 0 0 0 0 0 0 0 0 0 0 0 0 0 0 0 0 0 0 0 0 0 0 0 0 0 0 0 0 0 0 0 0 0 0 0 0 0 0
0 0 0 0 0 0 0 0 0 0 0 0 0 0 0 0 0 0 0 0 0 0 0 0 0 0 0 0 0 0 0 0 0 0 0 0 0 0 0 0 0 0 0 0
0 0 0 0 0 0 0 0 0 0 0 0 0 0 0 0 0 0 0 0 0 0 0 0 0 0 0 0 0 0 0 0 0 0 0 0 0 0 0 0 0 0 0 0

GEFSNGP_con_prob3kmehi_180.txt.gz
EHI
0 0 0 0 0 0 1 0 0 0 0 0 0 0 0 0 1 1 1 1 2 3 5 8 9 9 9 9 7 6 6 6 5 5 5 5 4 3 3 2 1 0 0 0
0 0 0 0 0 1 1 1 0 0 0 0 0 0 0 0 0 0 0 1 2 2 4 7 9 10 10 9 7 6 5 4 4 4 4 4 4 3 3 2 1 0 0 0
0 0 0 0 0 1 2 1 0 0 0 0 0 0 0 0 0 0 0 0 1 1 2 4 7 10 11 8 6 4 4 3 3 3 3 4 4 4 3 2 1 0 0 0
0 0 0 0 0 0 1 1 0 0 0 0 0 0 0 0 0 0 0 0 0 0 1 1 4 8 9 7 4 3 3 3 3 3 4 4 4 3 3 2 1 0 0 0
0 0 0 0 0 0 0 0 0 0 0 0 0 0 0 0 0 0 0 0 0 0 0 0 2 5 7 6 4 3 3 3 3 4 4 4 3 2 1 1 0 0 0 0
0 0 0 0 0 0 0 0 0 0 0 0 0 0 0 0 0 0 0 0 1 1 0 1 1 3 5 5 4 3 3 3 3 4 4 3 1 1 0 0 0 0 0 0
0 0 0 0 0 0 0 0 0 0 0 0 0 0 0 0 0 0 0 0 1 1 1 2 3 4 5 4 3 3 3 3 3 2 2 1 0 0 0 0 0 0 0 0
0 0 0 0 0 0 0 0 0 1 1 0 0 0 0 0 0 0 0 0 1 1 2 2 2 3 4 4 3 3 3 2 1 1 0 0 0 0 0 0 0 0 0 0
0 0 0 0 0 0 0 0 0 1 1 0 0 0 0 0 0 0 0 0 0 0 1 1 1 1 2 3 3 3 1 1 0 0 0 0 0 0 0 0 0 0 0 0
0 0 0 0 0 0 0 0 0 1 1 0 0 0 0 0 0 0 0 0 0 0 0 0 0 1 1 2 3 2 1 0 0 0 0 0 0 0 0 0 0 0 0 0
0 0 0 0 0 0 0 0 0 0 0 0 0 0 0 0 0 0 0 0 0 0 0 1 1 1 1 1 2 1 0 0 0 0 0 0 0 0 0 0 0 0 0 0
0 0 0 0 0 0 0 0 0 0 1 1 0 0 0 0 0 0 0 0 0 0 0 1 1 1 1 0 0 0 0 1 1 1 0 0 0 0 0 0 0 0 0 0
0 0 0 0 0 0 0 0 0 0 1 1 0 0 0 0 0 0 0 0 0 0 0 1 1 0 0 0 0 0 0 1 2 2 1 1 0 0 0 0 0 0 0 0
0 0 0 0 0 0 0 0 0 0 0 0 0 0 0 0 0 0 0 0 0 0 0 0 0 0 0 0 0 0 0 2 3 3 3 2 1 1 0 0 0 0 0 0
0 0 0 0 0 0 0 0 0 0 0 0 0 0 0 0 0 0 0 0 0 0 0 0 0 0 0 0 0 0 0 1 2 3 3 3 3 2 1 1 0 0 0 0
0 0 0 0 0 0 0 0 0 0 0 0 0 0 0 0 0 0 0 0 0 0 0 0 0 0 0 0 0 0 0 1 1 1 2 2 2 2 2 2 1 0 0 0
0 0 0 0 0 0 0 0 0 0 0 0 0 0 0 0 0 0 0 0 0 0 0 0 0 0 0 0 0 0 0 0 0 0 1 1 1 1 2 2 1 1 1 0
0 0 0 0 0 0 0 0 0 0 0 0 0 0 0 0 0 0 0 0 0 0 0 0 0 0 0 0 0 0 0 0 0 0 0 0 0 0 1 2 2 2 2 1
0 0 0 0 0 0 0 0 0 0 0 0 0 0 0 0 0 0 0 0 0 0 0 0 0 0 0 0 0 0 0 0 0 0 0 0 0 0 0 1 2 2 2 1
0 0 0 0 0 0 0 0 0 0 0 0 0 0 0 0 0 0 0 0 0 0 0 0 0 0 0 0 0 0 0 0 0 0 0 0 0 0 0 0 1 1 1 0
0 0 0 0 0 0 0 0 0 0 0 0 0 0 0 0 0 0 0 0 0 0 0 0 0 0 0 0 0 0 0 0 0 0 0 0 0 0 0 0 0 0 0 0
1 1 0 0 0 0 0 0 0 0 0 0 0 0 0 0 0 0 0 0 0 0 0 0 0 0 0 0 0 0 0 0 0 0 0 0 0 0 0 0 0 0 0 0
0 0 0 0 0 0 0 0 0 0 0 0 0 0 0 0 0 0 0 0 0 0 0 0 0 0 0 0 0 0 0 0 0 0 0 0 0 0 0 0 0 0 0 0
0 0 0 0 0 0 0 0 0 0 0 0 0 0 0 0 0 0 0 0 0 0 0 0 0 0 0 0 0 0 0 0 0 0 0 0 0 0 0 0 0 0 0 0
0 0 0 0 0 0 0 0 0 0 0 0 0 0 0 0 0 0 0 0 0 0 0 0 0 0 0 0 0 0 0 0 0 0 0 0 0 0 0 0 0 0 0 0
0 0 0 0 0 0 0 0 0 0 0 0 0 0 0 0 0 0 0 0 0 0 0 0 0 0 0 0 0 0 0 0 0 0 0 0 0 0 0 0 0 0 0 0
0 0 0 0 0 0 0 0 0 0 0 0 0 0 0 0 0 0 0 0 0 0 0 0 0 0 0 0 0 0 0 0 0 0 0 0 0 0 0 0 0 0 0 0

GEFSNGP_con_prob3kmehi_186.txt.gz
EHI
0 0 0 0 0 0 0 0 0 1 2 4 6 5 4 5 8 12 14 16 16 17 23 27 26 24 25 28 30 30 30 30 30 28 23 21 22 21 18 14 11 8 6 5
0 0 0 0 0 0 0 0 1 1 3 5 6 6 6 7 9 12 14 16 15 16 21 27 28 27 27 31 33 32 31 30 30 28 24 21 20 18 16 14 12 10 8 6
0 0 0 0 0 0 1 1 2 3 5 6 8 10 11 12 12 13 14 15 15 17 22 28 30 29 28 31 33 33 30 27 27 26 23 20 17 14 14 14 14 13 10 8
0 0 0 0 0 0 1 2 3 5 7 9 11 13 15 16 16 16 16 16 17 20 24 26 28 27 25 27 28 27 24 23 22 20 17 15 13 12 13 15 15 14 12 10
0 0 0 0 0 0 1 2 2 5 8 11 12 12 14 16 17 16 16 15 15 18 21 24 25 24 22 21 20 20 19 19 18 15 11 9 9 11 13 13 13 13 12 12
0 0 0 0 0 0 1 1 1 3 7 10 11 10 10 12 13 13 11 10 10 13 17 19 21 20 17 14 14 14 15 15 13 11 8 6 7 10 11 11 11 11 11 12
0 0 0 1 1 1 2 2 2 4 7 12 12 10 8 8 10 10 9 8 8 10 12 14 15 13 10 8 8 11 13 12 10 8 6 5 6 9 10 10 11 11 11 11
1 0 1 2 3 5 6 7 9 10 11 13 13 10 8 7 8 9 9 8 7 7 8 9 9 7 6 6 7 12 14 12 10 8 6 6 8 9 10 11 11 11 10 10
2 2 2 3 5 8 10 13 16 16 14 11 9 9 8 8 8 9 9 8 6 5 5 6 7 7 8 8 11 15 17 15 12 9 8 9 10 10 9 9 8 7 6 5
3 2 2 3 4 6 9 13 15 13 9 6 6 7 8 10 11 11 10 8 7 5 5 6 7 8 9 10 14 17 20 19 14 10 10 11 10 8 7 5 4 3 3 3
2 1 1 2 2 2 4 8 9 7 4 3 4 6 7 9 11 13 12 9 8 8 7 6 7 8 7 9 13 17 19 19 14 10 10 10 8 5 3 2 2 1 2 3
2 1 0 1 1 1 1 3 4 4 2 1 3 5 6 7 9 12 13 10 8 8 7 6 7 8 9 10 13 15 17 17 15 13 12 9 6 5 3 2 1 0 1 2
2 1 0 0 0 0 1 2 2 3 3 3 4 5 6 8 8 9 10 9 7 7 6 6 7 8 10 12 13 14 15 16 18 19 15 9 6 6 5 2 0 0 0 0
1 1 0 0 0 0 0 1 1 1 2 3 4 5 6 6 6 6 6 6 5 5 6 5 5 7 9 11 12 12 12 13 16 18 14 10 8 7 6 4 2 1 1 0
0 0 0 0 0 0 0 0 0 0 1 2 4 4 4 3 3 3 4 4 3 4 5 5 5 5 7 10 11 9 7 8 10 11 11 10 9 8 8 6 4 3 2 1
0 0 0 0 0 0 0 0 0 0 0 1 2 3 3 2 2 2 3 3 3 5 6 6 5 6 8 9 10 7 5 4 4 6 8 9 10 9 8 7 5 3 2 1
0 0 0 0 0 0 0 0 0 0 0 1 2 2 2 2 2 2 2 2 3 6 8 7 6 8 8 8 7 5 2 1 1 4 7 8 8 8 7 6 4 2 2 1
0 0 0 0 0 0 0 1 1 0 0 0 1 1 1 1 2 2 1 1 2 5 6 6 6 7 6 5 4 2 1 0 1 3 4 4 5 6 6 5 3 2 1 1
0 0 0 0 0 0 0 1 2 1 0 0 0 0 0 0 1 1 1 0 1 2 3 3 3 3 3 3 2 2 1 0 1 1 1 2 3 4 5 4 2 1 0 1
0 0 0 0 0 0 0 1 2 1 0 0 0 0 0 0 0 0 0 0 1 1 1 2 1 1 2 2 2 2 1 0 1 1 2 3 3 3 3 2 1 0 0 0
0 0 0 1 1 1 1 0 1 1 0 0 0 0 0 0 0 0 0 0 1 1 1 1 1 1 1 1 1 2 2 2 2 3 3 3 3 3 2 1 0 0 0 0
0 0 0 1 2 2 1 0 0 0 0 0 0 0 0 0 0 0 0 0 1 1 1 1 1 0 0 0 1 2 3 2 2 3 3 3 3 2 1 0 0 0 0 0
0 0 0 0 1 1 1 0 0 0 0 0 0 0 0 0 0 0 0 0 0 0 0 1 1 0 0 0 1 1 2 2 1 2 3 2 1 1 0 0 0 0 0 0
0 0 0 0 0 0 0 0 0 0 0 0 0 0 0 0 0 0 0 0 0 0 0 0 0 0 0 0 0 0 0 0 1 1 2 1 0 0 0 0 0 0 0 0
0 0 0 0 0 0 0 0 0 0 0 0 0 0 0 0 0 0 0 0 0 0 0 0 0 0 0 0 0 0 0 0 0 1 1 0 0 0 0 0 0 0 0 0
0 0 0 0 0 0 0 0 0 0 0 0 0 0 0 0 0 0 0 0 0 0 0 0 0 0 0 0 0 0 0 0 0 0 0 0 0 0 0 0 0 0 0 0
0 0 0 0 0 0 0 0 0 0 0 0 0 0 0 0 0 0 0 0 0 0 0 0 0 0 0 0 0 0 0 0 0 0 0 0 0 0 0 0 0 0 0 0

GEFSNGP_con_prob3kmehi_192.txt.gz
EHI
0 0 0 0 0 0 0 0 1 4 9 11 10 12 17 19 21 26 31 36 42 50 53 53 52 52 49 47 49 50 49 48 45 43 44 46 42 37 33 31 30 31 32 31
0 0 0 0 0 0 0 0 1 5 9 10 12 17 19 19 21 25 29 34 41 48 52 51 49 50 49 49 51 52 51 49 46 43 43 43 39 35 32 30 30 30 30 29
0 0 0 0 0 0 2 3 5 9 12 13 17 21 22 21 22 24 25 31 39 47 52 50 47 48 49 49 48 50 49 45 43 42 40 36 33 33 34 32 32 31 29 28
0 0 0 1 1 3 6 10 13 15 18 20 23 24 24 24 26 25 26 31 39 45 48 47 44 44 45 43 41 41 41 39 38 38 35 31 30 33 35 34 32 31 30 29
0 0 0 2 4 6 11 14 15 19 23 23 23 23 24 27 29 29 29 33 37 39 41 44 44 42 39 36 33 32 32 33 34 34 32 30 30 32 34 33 29 28 28 27
0 0 1 3 6 8 11 13 15 20 24 23 20 22 24 26 28 30 31 31 31 32 38 45 48 43 34 30 30 28 28 28 30 32 32 33 33 33 31 29 25 23 22 22
0 0 2 7 11 14 16 19 21 23 25 24 24 26 26 25 27 29 29 27 27 32 40 46 48 43 35 32 31 28 25 26 30 32 32 34 37 35 28 23 21 19 19 18
1 2 7 14 19 22 27 30 28 27 27 27 27 27 27 27 27 28 28 27 29 35 40 40 39 38 35 34 33 29 27 28 30 31 31 33 36 34 25 19 17 16 15 14
4 7 14 22 26 27 29 30 29 30 30 28 24 22 25 28 28 26 26 27 29 31 32 30 29 30 31 31 30 30 31 32 31 30 30 31 30 27 20 14 12 11 10 10
7 9 14 21 24 24 22 23 26 30 30 25 20 20 24 26 26 24 24 24 23 24 24 23 23 23 25 26 25 26 30 31 29 26 26 25 23 19 13 10 8 7 7 8
9 8 9 13 16 16 17 19 22 24 23 21 20 20 22 22 21 21 21 20 19 19 20 22 22 21 23 26 25 23 25 25 23 20 19 19 17 12 8 6 5 4 5 6
7 7 7 8 10 12 14 16 18 18 17 17 18 18 18 17 17 17 17 18 18 17 19 22 23 21 22 25 24 21 21 20 16 14 15 15 13 9 5 3 2 1 2 3
8 7 7 8 9 11 12 13 15 15 14 13 14 14 14 14 14 15 15 16 16 15 17 22 23 21 19 21 22 19 16 14 11 11 13 13 10 7 3 1 1 0 0 1
9 9 8 8 8 9 10 12 13 14 12 11 11 11 11 11 13 13 13 13 13 13 15 18 20 18 16 17 18 16 12 8 7 9 11 10 7 5 4 3 3 2 1 1
6 6 7 7 7 8 9 11 12 11 10 10 9 9 9 10 11 12 12 12 12 12 13 14 16 17 15 13 12 12 10 7 6 8 9 6 4 3 3 4 5 5 3 2
3 3 3 5 6 6 7 7 7 7 7 7 7 7 8 9 10 11 10 9 10 12 12 13 15 16 15 12 8 8 7 5 4 6 6 5 3 3 4 5 6 5 4 3
3 2 2 2 4 5 4 3 3 3 4 5 6 6 6 7 7 7 6 5 7 9 11 12 14 15 14 11 8 7 5 3 2 3 4 5 5 5 5 5 5 4 3 3
3 3 2 2 2 3 3 2 2 2 3 3 5 6 6 5 4 4 3 3 4 7 8 9 10 11 11 9 6 6 6 4 2 2 3 3 5 6 6 5 4 3 3 2
1 2 2 1 1 2 3 4 4 4 4 4 5 6 6 4 3 3 3 3 4 5 6 6 6 6 7 6 4 4 4 3 3 2 1 1 2 5 5 5 4 3 2 1
0 1 1 0 1 3 5 6 7 6 5 5 5 5 5 4 3 3 2 2 2 3 3 4 4 4 4 3 2 2 2 2 1 1 0 0 1 3 4 4 3 3 2 1
0 0 0 0 2 3 5 6 6 5 5 4 4 4 3 3 2 1 1 1 1 1 1 2 3 2 1 1 1 1 1 1 0 0 0 0 1 2 3 3 2 2 2 1
0 0 0 2 4 5 4 4 4 4 3 3 2 2 2 1 1 0 0 0 0 0 0 0 1 0 0 0 0 0 0 0 0 0 0 0 1 2 2 1 1 1 1 0
1 0 0 2 5 5 4 3 3 2 2 1 1 1 1 0 0 0 0 0 0 0 0 0 0 0 0 0 0 0 0 0 0 0 0 0 0 1 1 0 0 0 0 0
2 1 0 1 3 3 3 2 1 1 1 0 0 0 0 0 0 0 0 0 0 0 0 0 0 0 0 0 0 0 0 0 0 0 0 0 0 0 0 0 0 0 0 0
2 1 0 0 1 1 1 1 0 0 0 0 0 0 0 0 0 0 0 0 0 0 0 0 0 0 0 0 0 0 0 0 0 0 0 0 0 0 0 0 0 0 0 0
1 0 0 0 0 0 0 0 0 0 0 0 0 0 0 0 0 0 0 0 0 0 0 0 0 0 0 0 0 0 0 0 0 0 0 0 0 0 0 0 0 0 0 0
0 0 0 0 0 0 0 0 0 0 0 0 0 0 0 0 0 0 0 0 0 0 0 0 0 0 0 0 0 0 0 0 0 0 0 0 0 0 0 0 0 0 0 0

GEFSNGP_con_prob3kmehi_198.txt.gz
EHI
0 0 0 0 0 0 0 0 1 1 1 1 2 3 9 16 24 32 35 34 33 33 33 34 35 36 36 35 34 32 29 25 20 17 15 12 11 12 12 9 7 7 8 9
0 0 0 0 0 0 0 0 1 3 3 2 4 6 11 18 25 32 35 36 35 35 33 32 31 30 29 28 26 25 24 20 17 15 13 11 10 10 11 10 9 9 10 10
0 0 0 0 0 0 0 0 2 4 4 3 6 11 14 18 25 30 32 33 34 34 32 27 25 23 22 21 20 19 18 16 14 13 12 11 9 9 10 11 12 12 11 11
0 0 0 0 0 0 0 1 2 5 7 8 13 18 18 18 21 25 25 24 26 29 29 25 20 18 18 18 17 15 14 14 14 14 13 12 10 9 10 11 12 12 12 13
0 0 0 0 0 0 0 2 4 8 11 15 21 26 23 19 18 19 19 16 18 23 26 23 18 16 16 15 13 12 11 12 14 15 15 14 13 13 14 13 12 10 11 13
0 0 0 0 1 0 0 2 5 10 15 18 23 26 23 18 15 14 14 14 15 20 23 20 15 15 15 13 11 11 10 9 10 13 14 14 15 17 16 14 10 9 9 9
0 0 0 1 2 1 0 2 6 12 16 17 19 20 18 13 10 10 13 16 17 20 20 16 15 15 14 12 10 9 7 5 6 9 12 12 13 14 14 11 8 7 6 5
0 0 1 2 2 1 1 3 7 12 14 14 15 16 14 12 11 13 16 18 19 19 17 14 14 14 12 10 8 6 4 4 4 6 8 8 8 9 9 8 7 6 4 4
1 2 3 3 2 2 3 5 7 10 10 11 14 15 15 15 16 17 18 18 18 17 13 11 11 11 10 8 6 5 4 3 3 4 5 5 5 6 6 6 7 6 4 3
3 4 5 5 4 3 4 6 7 8 9 12 16 18 17 17 17 17 16 15 14 12 10 9 8 8 8 8 7 6 5 4 4 3 3 2 3 3 3 3 5 5 3 1
4 4 6 6 4 4 5 7 8 8 10 15 18 18 16 14 14 14 13 12 11 9 8 7 7 8 8 8 8 7 6 5 4 3 1 1 1 1 1 1 1 1 1 0
3 4 5 4 3 4 6 8 9 9 12 15 15 13 12 11 11 12 12 12 11 9 7 7 9 9 8 6 6 5 4 4 4 3 1 0 0 0 0 0 0 0 0 0
1 2 3 2 2 3 5 6 7 7 8 10 9 7 8 8 10 11 10 10 9 8 7 7 9 9 7 5 3 3 2 2 2 2 2 1 0 0 0 0 0 0 0 0
0 1 1 0 0 1 2 2 2 3 4 6 6 6 6 7 9 9 8 7 7 6 6 6 6 6 6 5 3 2 2 1 1 1 2 1 0 0 0 0 0 0 0 0
0 0 0 0 0 0 0 0 0 1 3 6 6 5 4 5 6 7 7 6 6 5 4 4 4 4 5 5 4 3 2 1 0 0 1 1 0 0 0 0 0 0 0 0
0 0 0 0 0 0 0 0 0 2 5 6 6 4 3 4 6 6 6 5 4 4 3 3 3 4 5 4 3 2 1 0 0 0 0 0 0 0 0 0 0 0 0 0
0 0 0 0 0 0 0 0 0 2 4 5 5 4 4 5 6 6 5 4 3 3 2 2 2 3 3 2 1 1 0 0 0 0 0 0 0 0 0 0 0 0 0 0
0 0 0 0 0 0 0 0 0 1 1 2 3 4 5 6 6 5 4 3 2 1 1 1 1 1 2 1 0 0 0 0 0 0 0 0 0 0 0 0 0 0 0 0
0 0 0 0 0 0 0 0 0 0 0 1 3 5 5 5 4 3 1 1 1 0 0 0 0 0 0 0 0 0 0 0 0 0 0 0 0 0 0 0 0 0 0 0
0 0 0 0 0 0 0 0 0 0 0 2 3 3 3 3 2 1 0 0 0 0 0 0 0 0 0 0 0 0 0 0 0 0 0 0 0 0 0 0 0 0 0 0
0 0 0 0 0 0 0 0 0 0 0 1 1 1 1 1 1 0 0 0 0 0 0 0 0 0 0 0 0 0 0 0 0 0 0 0 0 0 0 0 0 0 0 0
0 0 0 0 0 0 0 0 0 0 0 0 0 0 0 0 0 0 0 0 0 0 0 0 0 0 0 0 0 0 0 0 0 0 0 0 0 0 0 0 0 0 0 0
0 0 0 0 0 0 0 0 0 0 0 0 0 0 0 0 0 0 0 0 0 0 0 0 0 0 0 0 0 0 0 0 0 0 0 0 0 0 0 0 0 0 0 0
0 0 0 0 0 0 0 0 0 0 0 0 0 0 0 0 0 0 0 0 0 0 0 0 0 0 0 0 0 0 0 0 0 0 0 0 0 0 0 0 0 0 0 0
0 0 0 0 0 0 0 0 0 0 0 0 0 0 0 0 0 0 0 0 0 0 0 0 0 0 0 0 0 0 0 0 0 0 0 0 0 0 0 0 0 0 0 0
0 0 0 0 0 0 0 0 0 0 0 0 0 0 0 0 0 0 0 0 0 0 0 0 0 0 0 0 0 0 0 0 0 0 0 0 0 0 0 0 0 0 0 0
0 0 0 0 0 0 0 0 0 0 0 0 0 0 0 0 0 0 0 0 0 0 0 0 0 0 0 0 0 0 0 0 0 0 0 0 0 0 0 0 0 0 0 0